Wind_Speed
40 43 44 45 45 47 47 47 47 46 45 41 37 34 32 31 30 28 27 29 31 36 42 44 43 44 44 46 46 45 45 47 49 51 52 52 52 50 48 49 50 50 49 48 47 45 43 41 40 39 37 36 35 33 33 32 29 30 31 29 26 23 21
36 38 39 40 40 40 40 39 40 41 41 39 36 33 31 30 30 29 27 28 31 34 41 45 45 46 46 46 48 48 47 48 49 52 53 53 54 53 51 50 52 52 51 49 47 45 43 42 41 39 38 37 36 34 34 32 31 33 34 34 32 30 27
33 35 35 35 34 33 32 31 32 33 34 34 33 31 29 28 28 28 28 28 30 33 40 45 47 47 48 47 48 49 49 49 50 52 53 54 54 54 53 53 53 53 52 51 49 46 45 44 43 41 40 40 39 38 36 35 35 37 38 38 37 35 31
26 28 29 30 30 30 29 29 29 30 31 31 30 29 28 27 27 27 28 29 30 33 38 45 48 49 50 49 49 51 52 52 51 52 53 55 56 56 55 55 54 54 53 51 50 48 47 47 46 45 44 42 40 39 38 37 38 39 40 40 39 36 32
21 23 25 26 27 28 28 28 28 29 29 29 28 28 27 26 26 26 28 29 30 32 36 43 48 50 51 51 50 51 53 54 54 53 53 55 57 57 57 56 56 56 55 53 52 51 50 49 49 49 48 46 42 39 37 38 39 39 39 39 38 36 32
15 18 21 22 23 24 26 26 27 28 28 28 27 27 26 26 26 26 27 28 30 30 33 40 47 51 52 53 52 52 54 56 57 56 55 55 57 59 59 58 58 58 57 56 56 55 54 54 54 53 52 50 48 44 41 40 40 40 40 39 37 36 35
13 14 16 18 20 22 24 26 27 27 27 28 28 26 26 26 27 27 27 28 29 30 32 37 45 51 53 55 55 53 54 57 59 59 58 57 58 59 60 61 60 59 59 58 58 58 58 57 58 58 56 54 53 51 48 45 44 42 42 41 40 39 39
16 14 14 15 17 19 22 24 26 27 27 27 27 26 26 27 27 27 27 27 28 30 31 34 42 49 54 56 56 56 55 57 60 62 62 61 60 60 61 62 62 61 61 60 60 60 60 60 60 61 60 57 56 54 53 52 50 48 45 43 41 41 42
24 19 16 14 14 16 18 20 23 24 26 27 27 27 28 28 29 28 28 27 28 30 31 32 38 46 52 56 58 58 57 57 59 63 65 65 64 63 62 62 63 63 63 62 62 62 62 63 62 62 62 61 59 57 56 55 55 54 51 47 45 43 43
34 29 24 19 15 14 16 18 20 21 23 25 27 28 30 31 31 30 29 29 29 30 31 31 34 41 49 55 58 60 60 59 59 61 66 68 68 67 66 65 64 65 65 65 65 64 64 65 65 64 64 64 63 60 58 57 56 56 55 53 51 49 47
42 38 33 28 23 18 15 16 17 19 20 22 24 27 30 32 33 32 31 30 31 31 31 31 32 36 43 51 57 60 61 61 60 60 64 68 70 70 69 68 67 67 67 68 68 68 67 67 67 67 67 67 66 64 62 59 57 56 55 55 55 53 51
46 43 40 36 32 26 21 17 16 16 17 18 21 24 28 32 33 33 33 32 32 33 33 32 32 34 38 45 53 58 61 63 63 62 62 65 70 73 73 72 71 69 69 69 70 70 70 70 70 70 70 69 69 67 66 63 61 59 57 56 56 56 54
48 46 44 42 39 35 30 25 20 17 15 15 17 21 25 29 32 33 34 34 34 34 34 34 34 34 36 40 47 54 59 62 64 65 64 64 67 72 75 75 75 73 72 71 71 72 72 73 73 73 73 72 72 71 70 67 65 64 62 59 58 58 56
49 48 46 44 42 40 37 32 28 23 18 15 15 17 20 24 29 32 33 34 34 35 35 35 35 36 36 38 42 48 55 60 63 66 66 66 66 69 73 76 77 77 75 74 73 73 74 74 75 75 75 75 75 74 74 72 70 69 67 64 62 60 58
49 48 47 46 44 42 40 37 34 30 25 20 16 15 16 20 24 28 31 33 35 36 36 37 37 37 37 38 40 44 50 55 61 64 67 68 68 68 70 74 77 79 79 78 76 75 75 76 76 77 77 78 78 78 77 76 74 73 72 69 66 65 62
49 48 47 46 45 44 43 40 38 35 31 26 21 17 15 16 19 23 28 32 34 36 37 38 38 39 39 39 40 43 46 51 56 61 65 68 70 71 71 72 74 77 80 82 81 79 78 77 78 79 79 80 80 80 80 80 78 77 76 74 71 69 68
50 49 47 46 45 44 44 42 40 38 35 31 27 23 19 16 16 18 23 28 32 35 37 38 40 40 41 41 42 43 45 48 52 57 62 66 69 72 73 73 74 75 78 81 84 85 83 81 80 80 81 82 83 83 83 83 82 81 81 79 76 73 72
52 50 49 47 46 45 44 43 41 40 38 35 32 28 24 20 17 16 18 23 28 33 36 38 40 42 43 44 44 45 46 47 49 52 57 62 67 70 73 75 76 76 77 79 82 84 86 86 85 83 82 83 84 85 86 85 85 85 84 83 81 78 76
55 53 51 49 47 46 45 43 41 40 39 37 35 32 29 25 21 18 17 19 23 28 32 36 39 42 44 45 47 47 48 49 49 51 53 57 62 67 70 74 76 78 79 80 81 82 84 86 88 88 87 86 85 86 88 88 87 87 86 85 85 82 79
56 54 52 50 49 47 46 44 43 41 39 38 37 35 32 29 26 22 19 18 19 23 27 32 36 40 43 46 48 49 50 51 52 53 54 55 58 61 66 70 74 77 79 81 82 82 83 84 86 88 90 90 89 89 88 89 89 89 88 87 87 85 82
58 56 54 52 50 48 47 45 44 43 41 39 38 36 35 32 30 27 24 21 19 20 23 27 31 36 40 44 47 49 51 53 54 55 56 57 58 59 61 65 69 73 77 79 81 83 84 85 86 87 89 90 91 91 91 91 91 90 90 89 89 88 86
60 59 57 54 52 50 48 46 45 44 42 40 39 37 36 34 32 30 28 25 23 21 21 24 27 31 35 39 43 47 49 52 55 56 58 59 60 60 61 62 65 68 72 75 78 81 83 85 87 88 89 89 90 91 92 92 92 92 92 91 91 91 89
61 60 59 56 54 51 49 48 46 45 44 42 40 38 37 36 35 33 31 28 26 24 23 23 24 27 30 34 37 41 45 49 53 56 58 59 61 62 62 64 65 66 68 70 73 77 80 83 86 88 89 90 90 91 91 92 92 92 92 92 92 92 91
62 62 60 59 56 54 52 50 48 47 46 45 43 41 39 37 36 35 33 31 29 27 26 25 25 26 27 29 32 35 39 44 48 52 55 58 60 61 63 64 66 67 67 68 70 73 75 78 82 85 87 89 90 91 92 92 92 92 91 91 91 90 90
62 63 62 61 59 57 55 54 52 50 48 48 47 45 43 40 38 36 35 34 32 30 28 27 26 26 27 28 29 31 34 39 43 47 50 54 56 59 61 63 65 66 68 69 70 71 73 75 77 79 82 84 86 89 91 92 92 92 92 92 91 91 90
63 63 64 63 62 60 58 56 54 53 51 50 50 49 47 44 42 39 37 36 34 33 31 30 28 28 28 28 28 28 31 34 38 41 45 49 52 55 57 60 62 64 66 68 69 70 72 73 74 75 77 79 81 83 85 87 89 90 91 91 91 91 91
64 64 65 65 64 63 61 58 57 55 54 53 53 52 52 49 46 42 39 38 36 35 34 32 31 29 29 28 28 27 28 31 34 37 40 44 46 49 52 55 57 60 62 64 66 67 69 71 73 74 75 76 77 78 79 81 82 84 86 87 87 88 88
64 65 65 66 65 65 63 61 59 58 57 56 55 55 54 53 50 46 42 40 38 37 36 35 33 32 31 30 28 27 27 29 32 34 36 39 42 44 47 49 52 54 55 57 60 62 65 67 70 71 73 74 75 75 76 77 78 79 80 80 80 81 83
63 65 65 66 66 66 66 65 63 61 59 58 57 56 56 56 55 50 46 42 40 38 37 37 35 34 32 31 29 27 26 27 30 32 33 36 39 41 43 45 46 47 49 50 52 55 58 61 64 66 68 70 71 72 74 75 76 76 76 76 74 74 76
63 65 66 67 68 68 67 67 66 64 62 61 60 59 58 58 57 54 49 45 42 40 39 38 37 36 34 33 31 29 28 27 28 30 31 33 36 38 41 42 43 43 44 45 46 49 52 55 58 60 62 64 65 66 69 71 72 73 74 74 72 71 73
64 65 66 68 69 69 69 69 68 67 65 64 63 62 60 60 59 57 52 47 43 41 40 39 39 37 36 34 33 31 29 28 28 28 29 31 33 36 38 40 40 41 41 41 43 45 48 51 53 55 57 59 59 60 62 64 66 68 70 71 71 71 72
65 66 67 68 70 71 71 71 70 70 68 67 66 65 64 62 61 59 54 48 44 42 41 40 39 39 37 36 34 32 31 29 28 28 28 29 31 34 36 38 38 39 38 39 40 42 44 47 49 51 53 54 55 56 57 60 61 62 64 66 67 68 70
66 67 69 70 71 72 73 73 73 72 71 70 69 68 67 65 63 61 56 50 45 42 41 40 40 39 39 37 36 34 32 31 29 28 28 28 29 32 34 35 36 37 37 37 38 40 41 43 45 47 48 49 50 51 53 55 57 58 60 61 63 65 67
67 68 70 71 73 74 74 75 75 74 74 73 72 71 70 68 66 63 58 51 46 42 41 41 41 40 39 38 37 35 34 32 31 29 28 28 28 30 33 34 34 35 35 35 36 37 38 40 41 42 43 45 46 46 48 50 53 55 57 58 60 64 67
68 70 71 73 74 75 76 77 77 77 76 76 75 73 72 71 69 65 60 53 47 43 41 41 41 41 40 38 37 36 35 33 32 30 29 29 28 29 31 32 33 34 33 33 34 34 35 36 37 38 39 40 41 42 43 46 49 52 54 56 60 65 68
70 71 73 74 76 77 78 79 79 79 79 79 78 77 75 73 71 68 62 55 49 45 42 41 41 41 41 39 37 36 35 34 33 31 30 30 29 28 29 31 32 32 32 31 32 32 32 33 33 33 35 36 37 37 39 42 45 48 51 55 60 64 66
71 73 74 76 77 79 79 80 81 82 82 82 81 80 78 75 73 69 63 56 49 45 44 43 42 42 41 40 38 37 36 34 33 32 31 30 29 28 29 29 30 31 31 29 29 29 29 30 31 30 31 32 33 34 36 38 41 45 49 54 58 60 61
Wind_Direction
264 264 266 267 269 271 272 273 272 272 272 272 271 269 269 267 263 260 254 247 242 234 230 228 225 224 223 222 222 222 220 218 215 212 210 210 211 213 214 214 214 214 214 214 215 216 219 220 219 219 219 221 223 223 222 222 227 235 240 243 246 251 260
264 265 265 267 268 269 270 270 269 269 269 269 268 266 265 262 259 259 252 244 241 235 229 227 225 223 222 221 221 222 220 219 218 216 213 212 213 214 216 218 217 216 215 214 215 218 221 222 222 222 222 222 222 222 223 225 230 235 239 245 249 252 258
262 262 263 264 264 266 267 267 267 266 267 266 264 262 259 257 256 256 251 243 239 235 229 226 224 222 222 221 220 220 220 219 220 220 218 216 215 215 216 219 220 220 218 217 216 218 221 223 223 223 224 224 224 225 227 230 233 237 241 247 251 254 257
261 261 261 260 260 261 262 263 264 264 264 263 261 257 253 251 251 250 248 242 238 235 229 225 224 222 221 221 220 220 220 218 219 222 222 220 218 217 216 218 220 221 222 221 218 218 221 225 225 224 224 224 226 229 232 234 237 240 243 246 250 252 253
263 260 258 257 257 258 259 259 261 262 262 261 258 254 249 246 244 244 244 241 237 235 230 225 224 223 221 221 221 220 220 219 218 221 224 224 222 219 218 219 220 221 223 224 223 220 221 224 226 226 225 223 223 227 231 234 237 239 241 243 244 246 247
280 268 262 259 258 258 259 259 259 259 259 259 256 252 247 242 239 238 240 240 237 235 232 226 224 223 222 221 221 221 220 219 218 219 221 224 225 224 221 220 221 222 223 225 226 225 223 223 225 226 226 224 223 222 224 229 232 235 236 235 235 238 241
318 297 283 274 267 263 260 259 258 257 256 256 254 249 243 239 237 236 238 239 236 234 232 228 224 223 223 222 221 221 221 220 219 218 219 221 225 226 225 223 222 223 224 224 226 227 227 227 227 227 227 226 226 224 223 224 227 230 233 233 233 236 239
354 332 313 297 285 275 268 264 261 259 257 256 253 247 241 238 237 237 237 238 236 234 233 229 225 223 223 223 222 222 222 222 220 219 218 220 222 224 226 226 224 224 225 225 225 226 228 229 229 229 229 227 227 228 228 227 227 228 230 231 233 236 239
19 7 351 330 309 294 282 275 269 264 260 256 253 248 242 239 239 239 238 237 236 234 233 231 227 224 223 223 223 223 222 223 223 221 220 220 221 222 225 227 227 226 226 226 226 227 228 229 229 229 229 228 227 228 230 231 232 232 232 233 234 235 237
28 23 15 4 345 322 303 290 281 274 267 261 256 250 245 242 242 241 240 239 236 234 233 232 230 226 223 223 224 224 224 224 224 224 222 221 221 222 223 226 228 228 228 228 228 228 228 229 230 230 230 229 228 228 230 232 234 235 236 237 238 238 239
32 29 25 20 11 356 334 312 296 286 278 270 263 255 249 244 243 242 242 240 238 234 232 231 231 229 226 224 224 224 225 225 225 226 225 224 223 223 223 225 227 229 229 230 229 229 229 230 230 230 230 230 229 229 231 232 233 235 236 238 239 240 240
34 33 31 27 23 16 4 348 327 308 292 279 269 261 253 247 244 242 241 241 239 236 233 231 230 230 228 226 225 225 225 226 226 227 227 226 225 225 225 225 227 229 230 231 231 231 231 231 232 231 231 231 231 230 232 233 234 235 236 237 239 240 240
34 33 32 31 28 25 19 11 358 342 322 298 280 269 258 250 245 242 240 240 240 238 235 233 231 230 229 228 227 227 226 226 227 228 228 228 228 227 227 227 227 229 230 231 232 232 232 233 233 233 232 232 232 233 233 234 236 236 235 236 239 240 239
33 32 31 31 30 28 26 21 15 5 352 331 305 284 269 257 248 244 242 241 240 239 238 237 235 232 230 229 228 228 228 227 227 228 229 229 230 229 229 229 229 229 230 231 232 232 232 233 234 235 235 234 234 234 235 235 237 238 237 236 238 239 239
32 32 31 30 29 28 27 25 22 17 9 357 338 312 289 271 258 250 246 243 242 242 241 240 239 237 235 232 230 229 229 229 228 228 229 230 231 231 231 231 231 231 231 232 233 234 234 234 234 235 235 236 236 236 236 236 237 239 239 238 238 239 240
31 30 30 29 28 27 26 25 23 21 18 11 1 344 321 296 276 262 254 249 247 245 244 243 242 242 240 238 235 232 231 230 230 229 229 230 231 232 232 232 232 232 232 233 233 234 235 236 236 236 236 236 237 237 238 238 239 240 240 240 239 240 241
28 28 28 28 27 27 26 24 22 20 19 16 11 2 348 328 303 281 266 257 253 250 247 246 244 244 243 242 241 239 236 233 232 231 230 230 231 232 233 233 233 234 234 234 234 234 235 236 237 238 238 238 238 238 238 239 239 240 241 241 241 242 242
27 26 25 25 25 25 25 24 22 20 18 16 14 9 2 350 332 309 286 269 260 255 252 249 247 245 245 244 243 242 241 239 237 234 233 232 231 232 233 234 234 234 235 235 236 235 235 236 237 238 239 240 240 240 239 239 239 240 241 242 243 243 243
25 24 24 23 23 22 22 21 21 19 17 15 13 10 6 0 350 334 313 290 274 264 258 253 250 248 246 245 244 243 243 242 241 240 238 235 234 233 233 234 234 235 236 236 237 237 236 237 237 238 239 240 241 241 242 241 241 241 241 242 243 244 244
23 23 22 21 21 20 20 19 17 17 16 14 12 9 7 3 357 348 334 314 293 278 268 260 255 251 249 247 245 244 243 243 243 242 241 240 238 237 235 235 235 235 235 237 238 238 238 238 238 238 239 240 241 242 243 243 243 243 243 243 243 244 243
21 21 21 20 19 18 18 17 16 15 13 12 10 8 6 3 359 353 345 333 315 296 281 270 263 257 253 250 248 246 245 244 243 243 242 242 241 240 239 239 238 237 236 237 237 238 239 239 239 239 239 240 240 241 242 243 244 244 245 245 245 245 244
20 20 19 19 18 17 16 15 15 14 12 10 8 6 4 2 359 355 349 342 331 316 298 284 273 266 260 256 252 249 247 246 245 244 243 243 242 242 242 242 241 240 240 239 239 239 239 240 240 241 241 241 241 242 242 242 243 244 245 245 246 246 246
18 18 17 17 17 16 15 15 14 13 11 9 6 4 2 360 357 354 350 345 338 328 315 300 287 277 269 263 258 255 251 249 247 246 245 244 243 243 242 242 243 243 242 242 241 241 241 241 241 241 242 242 242 243 243 243 244 244 245 245 245 246 246
15 15 15 15 15 14 14 13 13 12 11 9 6 3 0 358 355 353 350 346 341 334 326 314 302 290 280 272 265 260 256 253 250 248 247 246 245 244 244 243 243 243 243 243 243 243 243 243 243 243 243 243 243 243 244 244 245 245 245 246 246 246 246
12 12 12 12 12 12 12 11 11 10 10 9 7 4 0 357 354 351 349 345 341 336 331 323 313 303 293 284 275 268 262 258 255 252 250 248 247 246 245 245 244 244 244 244 244 244 245 245 245 244 244 244 244 244 244 245 245 245 245 246 247 247 247
9 9 9 9 9 9 9 9 9 8 8 7 7 5 2 357 353 350 347 345 341 337 332 327 320 312 303 295 287 278 270 264 261 257 254 252 250 248 247 246 246 246 245 245 245 245 246 246 246 246 246 246 245 245 245 246 245 245 245 245 246 246 247
5 6 6 6 6 6 6 6 6 6 5 5 5 4 2 359 354 349 346 344 341 337 333 328 324 318 311 304 297 289 279 271 266 263 259 257 254 252 250 249 248 247 247 247 247 247 247 248 248 247 247 247 246 246 246 246 246 246 245 245 245 245 246
2 2 3 3 3 3 3 3 4 4 3 3 2 2 1 359 355 350 345 342 340 337 334 330 325 321 316 310 304 296 287 278 272 267 264 261 258 255 253 251 250 249 249 248 249 249 249 249 249 249 248 248 247 247 247 246 246 246 245 245 244 244 244
359 359 360 360 0 0 0 0 1 1 1 1 0 360 360 358 355 351 345 341 338 336 334 331 327 323 318 314 308 301 292 282 276 272 268 264 260 257 254 253 251 250 249 249 249 250 250 250 250 250 250 249 248 247 247 246 246 246 246 245 243 243 243
356 356 357 357 357 358 358 358 358 358 359 359 358 357 357 357 355 351 346 340 337 335 333 331 328 324 320 315 311 306 297 288 281 276 272 267 263 259 256 254 252 250 249 248 249 250 251 252 252 252 252 251 250 249 248 247 246 246 246 245 243 242 242
354 354 354 355 355 355 356 356 356 356 356 356 356 355 355 354 353 351 346 341 336 333 332 330 328 325 321 316 312 308 302 294 286 280 275 270 265 261 257 255 253 251 249 248 248 250 252 254 254 254 254 253 252 250 249 247 246 244 244 244 243 242 241
352 352 352 352 353 353 353 354 354 354 354 354 354 353 353 352 351 350 346 341 335 331 330 329 328 325 321 317 313 310 305 299 291 284 279 273 268 263 260 257 255 253 251 250 251 253 255 257 257 257 256 255 253 251 249 247 246 243 242 242 241 241 240
349 350 350 350 351 351 351 352 352 352 352 352 352 351 351 350 349 348 345 340 335 331 328 327 327 325 322 318 314 311 307 302 296 289 283 277 271 266 263 259 257 255 253 253 256 258 260 260 260 259 257 255 253 250 247 245 244 242 240 239 238 238 238
347 348 348 348 349 349 349 350 350 350 350 350 350 350 349 348 347 346 343 339 334 330 327 326 325 324 322 318 314 311 308 304 299 293 286 280 275 270 266 263 259 257 255 256 259 261 262 262 262 260 258 256 253 249 245 242 241 240 238 236 234 234 234
345 346 346 346 347 347 347 348 348 349 349 348 348 348 347 347 346 345 342 338 334 329 326 325 324 323 321 318 315 311 308 305 301 296 289 283 278 273 269 266 263 259 258 259 262 264 264 264 263 261 259 256 253 249 244 240 238 236 234 232 231 231 231
343 344 345 345 345 345 346 346 347 347 347 347 346 346 345 345 345 343 341 337 333 329 325 324 323 322 321 318 315 311 308 305 302 298 292 286 281 276 272 269 265 262 260 261 264 266 267 267 265 262 259 257 253 249 244 240 236 233 231 230 230 231 231
342 342 343 343 343 343 344 344 345 345 346 346 345 344 344 343 343 342 340 336 332 328 325 323 322 321 320 318 315 311 307 304 302 298 293 288 282 278 274 271 268 264 262 263 266 269 270 270 267 264 260 257 253 248 243 239 235 232 230 230 231 232 232
Height
10590 10590 10592 10594 10596 10596 10597 10598 10599 10600 10601 10603 10605 10606 10606 10606 10607 10607 10607 10607 10608 10610 10612 10615 10618 10621 10624 10628 10631 10634 10637 10640 10643 10647 10650 10654 10658 10661 10664 10667 10669 10671 10674 10677 10681 10683 10686 10689 10692 10695 10698 10700 10702 10704 10705 10708 10711 10712 10713 10716 10717 10719 10720
10583 10584 10586 10588 10590 10591 10592 10592 10593 10594 10595 10597 10600 10601 10601 10602 10602 10603 10603 10603 10604 10605 10607 10610 10613 10616 10620 10623 10626 10630 10633 10636 10639 10642 10646 10649 10652 10656 10660 10663 10665 10667 10670 10673 10676 10679 10682 10685 10688 10691 10694 10696 10698 10700 10702 10705 10707 10709 10710 10712 10713 10714 10717
10578 10579 10581 10583 10585 10586 10587 10587 10588 10589 10590 10592 10594 10595 10596 10597 10598 10598 10599 10599 10600 10601 10602 10605 10608 10611 10615 10618 10622 10625 10629 10632 10635 10638 10641 10644 10648 10651 10655 10658 10661 10664 10666 10669 10672 10675 10678 10681 10684 10688 10690 10692 10694 10696 10698 10701 10704 10705 10706 10708 10709 10710 10713
10573 10575 10576 10578 10580 10581 10582 10583 10584 10584 10586 10587 10588 10590 10591 10592 10593 10594 10594 10594 10595 10596 10598 10600 10603 10606 10610 10614 10617 10621 10624 10628 10632 10635 10637 10640 10643 10646 10649 10653 10656 10660 10663 10666 10668 10671 10673 10676 10679 10683 10685 10688 10690 10692 10694 10697 10699 10701 10702 10703 10705 10707 10710
10571 10572 10573 10574 10576 10577 10577 10578 10579 10580 10581 10582 10583 10584 10586 10588 10589 10589 10589 10589 10590 10592 10594 10596 10598 10602 10605 10609 10613 10616 10620 10623 10627 10630 10633 10635 10638 10641 10644 10648 10651 10655 10659 10662 10664 10666 10668 10671 10674 10677 10680 10682 10685 10687 10691 10693 10695 10697 10698 10699 10701 10704 10706
10569 10569 10569 10571 10572 10572 10573 10573 10574 10575 10576 10577 10578 10580 10581 10583 10584 10584 10585 10585 10586 10588 10590 10592 10594 10597 10600 10604 10608 10611 10615 10618 10622 10625 10629 10631 10633 10636 10639 10642 10646 10650 10653 10657 10659 10661 10663 10665 10668 10671 10674 10677 10679 10682 10685 10688 10690 10692 10693 10695 10697 10700 10702
10567 10566 10566 10567 10568 10568 10569 10569 10570 10571 10571 10572 10573 10575 10577 10578 10579 10580 10581 10582 10583 10584 10585 10587 10589 10592 10595 10599 10602 10606 10609 10612 10616 10620 10623 10626 10629 10631 10633 10636 10640 10643 10647 10650 10653 10656 10658 10660 10662 10665 10669 10672 10674 10677 10679 10681 10684 10686 10688 10690 10693 10696 10698
10566 10565 10564 10564 10564 10565 10565 10565 10565 10566 10567 10567 10569 10570 10572 10573 10573 10575 10577 10578 10579 10580 10581 10582 10584 10587 10590 10593 10597 10600 10603 10607 10610 10614 10617 10621 10624 10626 10628 10631 10634 10637 10640 10643 10646 10650 10652 10655 10657 10660 10664 10666 10668 10671 10673 10675 10677 10679 10682 10685 10688 10690 10693
10566 10564 10563 10562 10561 10561 10561 10561 10561 10561 10562 10563 10564 10565 10567 10568 10568 10570 10572 10574 10575 10576 10577 10578 10580 10582 10585 10588 10591 10594 10598 10601 10604 10608 10611 10615 10618 10621 10623 10626 10628 10631 10634 10637 10640 10643 10646 10649 10651 10654 10657 10660 10662 10665 10668 10670 10671 10674 10677 10680 10682 10685 10687
10566 10564 10562 10561 10559 10558 10558 10557 10557 10557 10558 10559 10559 10560 10562 10563 10564 10565 10567 10569 10570 10571 10573 10574 10575 10577 10580 10582 10585 10589 10592 10595 10599 10601 10605 10608 10612 10615 10618 10620 10623 10626 10629 10632 10634 10637 10640 10643 10645 10648 10651 10653 10656 10659 10661 10663 10665 10668 10672 10675 10677 10680 10682
10568 10565 10563 10560 10559 10557 10556 10555 10554 10554 10554 10555 10555 10556 10556 10557 10559 10560 10562 10564 10565 10567 10568 10570 10571 10573 10575 10577 10580 10583 10586 10589 10593 10595 10599 10602 10605 10608 10612 10614 10617 10620 10622 10625 10628 10631 10634 10637 10639 10642 10644 10647 10650 10652 10654 10657 10659 10662 10666 10669 10671 10674 10677
10570 10567 10564 10561 10559 10557 10555 10553 10552 10551 10551 10551 10551 10551 10551 10552 10554 10555 10557 10558 10560 10562 10563 10565 10567 10568 10570 10572 10574 10577 10580 10583 10586 10589 10592 10595 10598 10601 10604 10608 10611 10613 10616 10618 10621 10624 10627 10630 10632 10635 10638 10640 10643 10645 10647 10650 10652 10655 10659 10662 10664 10668 10672
10572 10568 10565 10562 10560 10557 10555 10553 10551 10549 10548 10548 10547 10547 10547 10548 10549 10550 10552 10553 10555 10557 10558 10560 10562 10564 10565 10567 10568 10570 10573 10577 10580 10583 10586 10589 10592 10594 10597 10600 10604 10607 10609 10612 10615 10617 10620 10623 10625 10628 10631 10633 10636 10638 10641 10644 10645 10647 10652 10655 10657 10661 10665
10573 10570 10567 10564 10561 10558 10555 10553 10551 10549 10547 10546 10545 10544 10544 10544 10545 10546 10547 10549 10550 10552 10553 10555 10556 10558 10560 10562 10563 10565 10567 10570 10573 10576 10579 10582 10585 10587 10590 10593 10596 10599 10602 10605 10607 10610 10613 10615 10618 10621 10623 10626 10629 10631 10634 10637 10638 10639 10644 10648 10650 10653 10658
10575 10572 10569 10565 10562 10559 10556 10553 10551 10549 10547 10545 10544 10542 10542 10541 10541 10542 10543 10544 10546 10547 10548 10550 10551 10553 10555 10556 10558 10559 10561 10563 10566 10569 10572 10575 10577 10580 10582 10585 10588 10592 10595 10597 10600 10602 10605 10608 10610 10613 10616 10619 10621 10624 10627 10630 10631 10632 10636 10640 10644 10646 10650
10577 10574 10570 10567 10563 10560 10556 10554 10551 10549 10547 10544 10543 10541 10540 10539 10539 10539 10540 10540 10541 10542 10543 10545 10546 10548 10549 10551 10552 10554 10555 10557 10559 10561 10564 10567 10570 10572 10575 10577 10581 10584 10586 10588 10591 10594 10597 10600 10602 10605 10608 10611 10614 10617 10619 10622 10625 10626 10628 10631 10636 10640 10642
10578 10574 10571 10568 10564 10561 10557 10554 10552 10549 10547 10544 10542 10540 10538 10537 10537 10536 10536 10536 10537 10538 10538 10540 10541 10542 10543 10545 10546 10547 10549 10550 10552 10554 10557 10559 10562 10564 10566 10569 10572 10575 10577 10579 10582 10585 10589 10591 10594 10597 10599 10602 10606 10609 10611 10614 10617 10619 10620 10623 10628 10632 10635
10578 10575 10571 10568 10564 10561 10558 10555 10552 10549 10547 10544 10542 10540 10537 10536 10534 10533 10533 10533 10532 10533 10533 10534 10535 10536 10537 10538 10540 10541 10542 10543 10545 10547 10549 10551 10553 10556 10558 10560 10564 10566 10568 10570 10573 10576 10580 10583 10585 10588 10590 10593 10597 10599 10602 10606 10609 10611 10613 10615 10618 10624 10628
10578 10575 10571 10568 10564 10561 10558 10555 10553 10550 10547 10544 10541 10539 10537 10534 10532 10531 10530 10529 10528 10528 10528 10528 10529 10530 10530 10532 10533 10534 10535 10537 10538 10539 10541 10543 10545 10547 10549 10552 10554 10557 10559 10561 10563 10567 10571 10574 10576 10579 10581 10584 10587 10590 10593 10597 10600 10603 10606 10608 10610 10614 10621
10579 10576 10572 10568 10565 10561 10558 10555 10552 10549 10546 10544 10541 10538 10536 10533 10531 10529 10527 10525 10524 10523 10522 10522 10522 10522 10523 10524 10525 10527 10528 10529 10531 10532 10533 10535 10536 10538 10541 10543 10545 10547 10550 10552 10554 10557 10561 10564 10566 10568 10571 10573 10576 10580 10583 10586 10590 10593 10597 10599 10601 10604 10610
10580 10576 10573 10569 10566 10562 10559 10555 10552 10549 10546 10543 10540 10537 10535 10532 10529 10527 10525 10522 10521 10519 10518 10516 10516 10516 10516 10516 10517 10519 10520 10521 10522 10524 10525 10527 10528 10530 10532 10534 10535 10537 10540 10543 10545 10547 10550 10553 10555 10557 10560 10563 10565 10569 10573 10575 10579 10583 10586 10589 10592 10594 10600
10580 10576 10573 10570 10567 10563 10560 10556 10553 10549 10546 10542 10539 10536 10533 10530 10528 10525 10522 10520 10517 10515 10513 10512 10510 10510 10509 10509 10510 10511 10512 10513 10514 10515 10516 10518 10520 10522 10524 10525 10526 10528 10530 10533 10535 10536 10539 10541 10543 10545 10549 10552 10554 10558 10561 10565 10568 10572 10575 10579 10582 10584 10589
10580 10577 10574 10570 10567 10564 10560 10557 10553 10549 10546 10542 10539 10536 10532 10529 10526 10523 10520 10517 10514 10512 10509 10507 10506 10504 10503 10503 10503 10503 10504 10505 10505 10506 10507 10509 10510 10512 10514 10516 10517 10519 10521 10523 10525 10526 10528 10530 10532 10534 10537 10541 10544 10547 10550 10554 10557 10561 10565 10568 10571 10574 10578
10580 10577 10574 10570 10567 10563 10560 10556 10553 10549 10545 10542 10538 10535 10531 10528 10524 10521 10517 10514 10511 10508 10505 10503 10501 10499 10498 10497 10496 10496 10496 10496 10497 10497 10498 10499 10500 10502 10504 10506 10507 10509 10511 10513 10514 10515 10517 10519 10521 10523 10526 10529 10533 10535 10538 10542 10545 10549 10553 10556 10559 10563 10568
10579 10576 10573 10570 10566 10562 10558 10555 10551 10548 10544 10540 10537 10533 10529 10526 10522 10518 10515 10511 10508 10505 10502 10499 10496 10494 10492 10491 10490 10490 10489 10489 10489 10489 10489 10490 10491 10492 10494 10496 10497 10499 10500 10502 10504 10505 10506 10508 10510 10512 10515 10518 10521 10523 10526 10529 10533 10537 10541 10544 10548 10552 10556
10578 10575 10572 10568 10565 10561 10557 10554 10550 10547 10543 10539 10535 10531 10527 10523 10519 10515 10512 10508 10504 10501 10498 10495 10492 10489 10487 10485 10484 10484 10483 10482 10481 10481 10481 10481 10482 10483 10484 10486 10487 10488 10490 10492 10494 10495 10496 10497 10499 10502 10504 10506 10509 10511 10514 10517 10521 10525 10529 10533 10536 10540 10544
10576 10573 10570 10566 10563 10560 10556 10553 10549 10545 10541 10536 10532 10528 10524 10520 10516 10512 10509 10505 10501 10497 10494 10490 10487 10485 10482 10480 10478 10477 10476 10475 10474 10474 10474 10474 10474 10474 10475 10477 10478 10479 10481 10483 10484 10485 10486 10487 10488 10491 10493 10495 10497 10500 10503 10505 10508 10512 10516 10520 10525 10529 10534
10574 10571 10568 10565 10562 10558 10554 10551 10547 10543 10539 10534 10530 10525 10521 10517 10513 10509 10505 10501 10497 10494 10490 10486 10483 10480 10477 10474 10472 10471 10470 10469 10467 10467 10466 10466 10466 10466 10467 10468 10469 10471 10472 10474 10475 10476 10476 10477 10478 10480 10482 10483 10486 10489 10492 10494 10496 10499 10503 10508 10514 10519 10522
10573 10570 10566 10563 10560 10556 10552 10548 10544 10540 10536 10532 10527 10523 10518 10514 10510 10505 10501 10497 10493 10489 10486 10482 10478 10475 10472 10469 10467 10465 10464 10462 10461 10460 10460 10459 10458 10458 10459 10460 10461 10462 10464 10465 10466 10466 10467 10467 10467 10469 10470 10472 10475 10478 10480 10482 10485 10488 10491 10496 10503 10508 10510
10572 10568 10564 10561 10557 10553 10549 10545 10541 10537 10533 10529 10524 10520 10515 10511 10506 10502 10497 10492 10488 10484 10481 10477 10474 10470 10467 10464 10461 10459 10458 10456 10455 10454 10453 10452 10452 10451 10452 10452 10453 10454 10456 10457 10458 10458 10458 10458 10458 10459 10460 10462 10465 10467 10469 10472 10474 10477 10481 10485 10492 10497 10498
10570 10566 10562 10558 10554 10550 10546 10542 10537 10533 10529 10525 10521 10516 10512 10508 10503 10498 10493 10488 10484 10480 10476 10472 10469 10465 10462 10459 10456 10454 10452 10450 10449 10448 10447 10446 10445 10445 10445 10445 10446 10447 10448 10450 10450 10450 10450 10449 10449 10450 10451 10452 10454 10457 10459 10461 10463 10467 10471 10475 10481 10485 10487
10567 10563 10559 10555 10551 10546 10542 10538 10534 10529 10525 10521 10517 10512 10508 10503 10499 10494 10489 10484 10479 10475 10471 10468 10464 10460 10456 10453 10451 10448 10446 10444 10443 10442 10441 10440 10439 10439 10438 10438 10439 10440 10441 10442 10443 10443 10442 10441 10441 10441 10442 10443 10444 10447 10449 10450 10453 10457 10461 10465 10470 10474 10478
10563 10560 10556 10551 10547 10543 10538 10534 10530 10525 10521 10516 10512 10507 10503 10498 10494 10489 10484 10479 10475 10470 10466 10462 10459 10455 10451 10448 10445 10442 10440 10438 10437 10436 10435 10434 10433 10432 10432 10432 10432 10433 10434 10435 10435 10435 10434 10433 10433 10433 10433 10433 10434 10437 10439 10440 10443 10447 10451 10455 10460 10464 10468
10560 10556 10552 10547 10543 10539 10534 10530 10526 10521 10517 10512 10507 10503 10498 10493 10488 10484 10479 10474 10469 10465 10461 10457 10453 10450 10446 10443 10439 10437 10434 10432 10431 10430 10428 10428 10427 10426 10426 10426 10426 10426 10427 10427 10427 10427 10427 10425 10425 10425 10424 10424 10425 10427 10429 10431 10434 10438 10441 10446 10451 10454 10457
10557 10552 10548 10543 10539 10534 10530 10526 10521 10517 10512 10507 10503 10498 10493 10488 10482 10477 10473 10468 10463 10459 10455 10452 10448 10444 10441 10437 10434 10431 10429 10426 10425 10423 10422 10421 10420 10420 10419 10419 10420 10420 10420 10420 10420 10420 10419 10418 10417 10417 10416 10416 10417 10419 10421 10423 10426 10429 10433 10437 10440 10442 10446
10553 10548 10543 10539 10534 10530 10525 10521 10516 10512 10507 10502 10497 10492 10487 10482 10477 10471 10466 10462 10457 10453 10449 10446 10442 10438 10435 10432 10429 10426 10423 10421 10419 10417 10416 10415 10414 10414 10413 10413 10413 10413 10414 10414 10414 10413 10412 10411 10410 10410 10409 10409 10411 10413 10414 10416 10419 10422 10425 10428 10430 10433 10438
10548 10544 10539 10534 10529 10525 10521 10516 10511 10506 10502 10498 10492 10487 10481 10476 10471 10466 10461 10456 10451 10447 10443 10439 10436 10433 10429 10426 10423 10420 10417 10415 10413 10411 10410 10409 10408 10407 10407 10407 10407 10407 10407 10408 10407 10406 10405 10404 10403 10403 10404 10404 10405 10407 10408 10410 10413 10416 10419 10421 10423 10427 10432